Location: Kellogg
(38.0159°N, 90.0546°W)
Time: 08:56:01
(UTC+00:00)

Vanguard 1 Rocket - Visible Passes

Search period start: 19 September 2024 00:00
Search period end: 29 September 2024 00:00
Orbit: 649 x 4219 km, 34.3° (Epoch: 18 September)

Date Brightness Start Highest point End Pass type
(mag) Time Alt. Az. Time Alt. Az. Time Alt. Az.
19 Sep 9.6 07:58:38 52° SSE 07:58:46 52° SSE 08:17:51 10° E visible
19 Sep 10.0 10:15:48 23° WSW 10:27:24 79° S 10:52:51 10° E visible
20 Sep 10.3 06:50:29 29° ESE 06:50:29 29° ESE 07:00:25 10° E visible
20 Sep 9.4 09:07:40 49° SW 09:12:44 72° SSE 09:35:32 10° E visible
21 Sep 11.0 05:42:21 10° E 05:42:21 10° E 05:42:23 10° E visible
21 Sep 9.4 07:59:32 58° SE 07:59:32 58° SE 08:18:10 10° E visible
21 Sep 10.0 10:16:43 23° W 10:27:57 79° S 10:53:08 10° E visible
22 Sep 10.2 06:51:24 31° ESE 06:51:24 31° ESE 07:01:00 10° E visible
22 Sep 9.3 09:08:35 51° WSW 09:13:17 75° SSE 09:35:49 10° E visible
23 Sep 11.0 05:43:15 11° E 05:43:15 11° E 05:43:47 10° E visible
23 Sep 9.3 08:00:27 63° SE 08:00:27 63° SE 08:18:28 10° E visible
23 Sep 10.0 10:17:38 23° W 10:28:30 78° S 10:53:21 10° ESE visible
24 Sep 10.1 06:52:19 33° E 06:52:19 33° E 07:01:30 10° E visible
24 Sep 9.2 09:09:30 52° WSW 09:13:55 77° S 09:36:04 10° E visible
25 Sep 11.0 05:44:11 11° E 05:44:11 11° E 05:44:49 10° E visible
25 Sep 9.2 08:01:23 66° SE 08:01:23 66° SE 08:18:46 10° E visible
25 Sep 9.9 10:18:35 23° W 10:29:04 76° S 10:53:30 10° ESE visible
26 Sep 10.1 06:53:17 33° E 06:53:17 33° E 07:01:55 10° E visible
26 Sep 9.2 09:10:28 53° WSW 09:14:35 77° S 09:36:18 10° E visible
27 Sep 11.0 05:45:11 11° E 05:45:11 11° E 05:45:37 10° E visible
27 Sep 9.2 08:02:23 68° SE 08:02:23 68° SE 08:19:04 10° E visible
27 Sep 9.9 10:19:34 24° W 10:29:38 72° SSW 10:53:31 10° ESE visible
28 Sep 10.1 06:54:18 32° E 06:54:18 32° E 07:02:21 10° E visible
28 Sep 9.1 09:11:30 54° WSW 09:15:17 76° S 09:36:29 10° ESE visible
